This is the latest recevied weather packets stored in our database for station/object KG4WIV. If no packets are shown the sender has not sent any weather packets the latest 10 day(s).
| Time | Temp. | Humidity | Pressure | Rain* | Wind** | Luminosity | Snow |
|---|---|---|---|---|---|---|---|
| 1778050843 | 21.11° C | 66% | 1012.7 hPa | 0 mm | - | - | - |
| 1778040033 | 21.11° C | 53% | 1013.2 hPa | 0 mm | - | - | - |
| 1778039133 | 21.11° C | 51% | 1013.3 hPa | 0 mm | - | - | - |
| 1778036431 | 21.11° C | 47% | 1013.4 hPa | 0 mm | - | - | - |
| 1778031929 | 21.11° C | 51% | 1013.1 hPa | 0 mm | - | - | - |
| 1778030139 | 21.67° C | 54% | 1012.9 hPa | 0 mm | - | - | - |
| 1778026522 | 22.78° C | 46% | 1012.9 hPa | 0 mm | - | - | - |
| 1778022034 | 24.44° C | 43% | 1012.7 hPa | 0 mm | - | - | - |
| 1778013919 | 25° C | 41% | 1013.3 hPa | 0 mm | - | - | - |
| 1778004060 | 24.44° C | 42% | 1015.1 hPa | 0 mm | - | - | - |
| 1778003158 | 24.44° C | 40% | 1015.3 hPa | 0 mm | - | - | - |
| 1777994101 | 20° C | 62% | 1016 hPa | 0 mm | - | - | - |
| 1777983335 | 9.44° C | 95% | 1015.8 hPa | 0 mm | - | - | - |
| 1777979722 | 7.78° C | 94% | 1014.9 hPa | 0 mm | - | - | - |
| 1777971616 | 8.89° C | 92% | 1015.1 hPa | 0 mm | - | - | - |
| 1777969811 | 8.89° C | 92% | 1015 hPa | 0 mm | - | - | - |
| 1777968009 | 8.89° C | 91% | 1015 hPa | 0 mm | - | - | - |
| 1777964410 | 9.44° C | 90% | 1015.1 hPa | 0 mm | - | - | - |
| 1777955465 | 12.22° C | 83% | 1015 hPa | 0 mm | - | - | - |
| 1777953647 | 12.78° C | 81% | 1015.1 hPa | 0 mm | - | - | - |
| 1777951808 | 13.33° C | 77% | 1015.2 hPa | 0 mm | - | - | - |
| 1777950044 | 14.44° C | 74% | 1015.2 hPa | 0 mm | - | - | - |
| 1777949143 | 15° C | 72% | 1015.3 hPa | 0 mm | - | - | - |
| 1777948213 | 15.56° C | 68% | 1015.1 hPa | 0 mm | - | - | - |
| 1777947360 | 16.11° C | 66% | 1014.9 hPa | 0 mm | - | - | - |
* Rain latest hour (hover to see other rain measurements)
** Current wind speed in m/s (hover to see current wind gust speed)